Date String (YYYY-MM-DD hh:mm:ss) UTC,Instrument flags,Ambient pressure (hPa),Sample flow (lpm),Bypass flow (lpm),Sample temperature (°C),Ambient temperature (°C),ASC tube jacket temperature (°C),LED temperature (°C),Box temperature (°C),Sample RH (%),Span deviation,Mass concentration (μg/m³),Mass concentration (μg/m³),Mass concentration (μg/m³)
DateTimeUTC,F1_M11,P_M11,Q1_M11,Q2_M11,T1_M11,T2_M11,T3_M11,T4_M11,T5_M11,U1_M11,ZSPAN_M11,X0_M11,X2_M11,X1_M11
2022-04-30 23:00:00,,0823.4,5.01,0.00,26.9,26.2,00.0,35.7,28.7,09.2,0000.0,0011.78,0005.27,0004.25
2022-04-30 23:01:00,,0823.4,5.00,0.00,26.9,26.3,00.0,35.7,28.7,09.2,0000.0,0011.94,0005.30,0004.28
2022-04-30 23:02:00,,0823.4,4.99,0.00,26.9,26.3,00.0,35.8,28.7,09.0,0000.0,0012.17,0005.32,0004.30
2022-04-30 23:03:00,,0823.4,4.99,0.00,26.9,26.4,00.0,35.8,28.8,09.3,0000.0,0013.66,0005.32,0004.31
2022-04-30 23:04:00,,0823.4,5.02,0.00,26.9,26.4,00.0,35.8,28.8,09.1,0000.0,0014.77,0005.36,0004.33
2022-04-30 23:05:00,,0823.5,4.98,0.00,27.0,26.4,00.0,35.8,28.8,09.1,0000.0,0015.96,0005.37,0004.35
2022-04-30 23:06:00,,0823.4,5.00,0.00,27.0,26.4,00.0,35.8,28.8,09.0,0000.0,0016.83,0005.39,0004.35
2022-04-30 23:07:00,,0823.5,5.02,0.00,27.0,26.4,00.0,35.8,28.8,09.0,0000.0,0016.46,0005.38,0004.36
2022-04-30 23:08:00,,0823.5,5.00,0.00,27.0,26.4,00.0,35.8,28.8,09.0,0000.0,0016.31,0005.33,0004.33
2022-04-30 23:09:00,,0823.4,4.99,0.00,27.0,26.4,00.0,35.8,28.8,09.1,0000.0,0017.04,0005.24,0004.29
2022-04-30 23:10:00,,0823.4,4.99,0.00,27.0,26.4,00.0,35.8,28.8,09.0,0000.0,0016.90,0005.16,0004.26
2022-04-30 23:11:00,,0823.6,4.99,0.00,27.0,26.4,00.0,35.8,28.8,09.0,0000.0,0016.83,0005.11,0004.23
2022-04-30 23:12:00,,0823.5,5.00,0.00,27.0,26.3,00.0,35.9,28.8,09.0,0000.0,0016.38,0005.02,0004.18
2022-04-30 23:13:00,,0823.4,5.01,0.00,27.0,26.3,00.0,35.9,28.8,09.1,0000.0,0016.30,0004.98,0004.12
2022-04-30 23:14:00,,0823.4,4.99,0.00,27.0,26.3,00.0,35.9,28.8,09.1,0000.0,0015.65,0004.92,0004.07
2022-04-30 23:15:00,,0823.4,5.00,0.00,27.0,26.2,00.0,35.9,28.8,09.1,0000.0,0014.39,0004.84,0004.01
2022-04-30 23:16:00,,0823.4,5.01,0.00,27.0,26.2,00.0,35.9,28.7,09.1,0000.0,0013.66,0004.78,0003.94
2022-04-30 23:17:00,,0823.4,4.99,0.00,27.0,26.3,00.0,35.9,28.7,09.0,0000.0,0012.27,0004.73,0003.90
2022-04-30 23:18:00,,0823.4,5.02,0.00,27.0,26.3,00.0,35.9,28.7,08.9,0000.0,0012.26,0004.72,0003.85
2022-04-30 23:19:00,,0823.4,5.00,0.00,27.0,26.3,00.0,35.9,28.8,09.0,0000.0,0012.17,0004.70,0003.82
2022-04-30 23:20:00,,0823.4,4.99,0.00,27.0,26.4,00.0,35.9,28.8,09.0,0000.0,0011.15,0004.70,0003.80
2022-04-30 23:21:00,,0823.4,5.01,0.00,27.0,26.4,00.0,35.9,28.8,09.0,0000.0,0011.24,0004.74,0003.79
2022-04-30 23:22:00,,0823.4,5.01,0.00,27.0,26.4,00.0,35.9,28.9,09.1,0000.0,0011.25,0004.77,0003.78
2022-04-30 23:23:00,,0823.5,5.00,0.00,27.0,26.4,00.0,35.9,28.8,09.4,0000.0,0011.06,0004.81,0003.77
2022-04-30 23:24:00,,0823.5,5.00,0.00,27.0,26.5,00.0,35.9,28.9,09.0,0000.0,0011.22,0004.82,0003.78
2022-04-30 23:25:00,,0823.6,4.99,0.00,27.0,26.5,00.0,35.9,28.8,09.0,0000.0,0010.88,0004.87,0003.81
2022-04-30 23:26:00,,0823.5,5.00,0.00,27.1,26.5,00.0,35.9,28.9,09.0,0000.0,0010.95,0004.96,0003.86
2022-04-30 23:27:00,,0823.6,5.01,0.00,27.1,26.5,00.0,35.9,28.9,09.0,0000.0,0010.64,0005.02,0003.91
2022-04-30 23:28:00,,0823.6,4.99,0.00,27.1,26.5,00.0,35.9,28.9,09.0,0000.0,0010.53,0005.10,0003.94
2022-04-30 23:29:00,,0823.5,4.99,0.00,27.1,26.5,00.0,35.9,28.9,09.0,0000.0,0010.59,0005.07,0003.95
2022-04-30 23:30:00,,0823.5,5.00,0.00,27.1,26.5,00.0,36.0,28.9,09.0,0000.0,0011.20,0005.07,0003.97
2022-04-30 23:31:00,,0823.5,5.01,0.00,27.1,26.5,00.0,36.0,28.9,08.9,0000.0,0011.30,0005.09,0003.97
2022-04-30 23:32:00,,0823.4,5.01,0.00,27.1,26.5,00.0,36.0,28.9,08.9,0000.0,0011.28,0005.10,0003.98
2022-04-30 23:33:00,,0823.4,5.00,0.00,27.1,26.5,00.0,36.0,28.9,08.9,0000.0,0011.39,0005.14,0004.00
2022-04-30 23:34:00,,0823.4,5.00,0.00,27.1,26.4,00.0,36.0,28.9,09.1,0000.0,0011.21,0005.11,0004.00
2022-04-30 23:35:00,,0823.4,5.00,0.00,27.1,26.4,00.0,36.0,28.9,08.9,0000.0,0010.98,0005.09,0004.00
2022-04-30 23:36:00,,0823.4,5.03,0.00,27.1,26.5,00.0,36.0,28.9,08.9,0000.0,0010.64,0005.03,0003.99
2022-04-30 23:37:00,,0823.4,4.99,0.00,27.1,26.5,00.0,36.0,28.9,08.8,0000.0,0010.88,0004.98,0003.96
2022-04-30 23:38:00,,0823.3,4.99,0.00,27.1,26.5,00.0,36.0,28.9,09.0,0000.0,0011.29,0004.98,0003.94
2022-04-30 23:39:00,,0823.3,5.00,0.00,27.1,26.5,00.0,36.0,28.9,09.0,0000.0,0011.11,0004.91,0003.92
2022-04-30 23:40:00,,0823.4,5.01,0.00,27.1,26.5,00.0,36.0,29.0,08.8,0000.0,0011.29,0004.91,0003.91
2022-04-30 23:41:00,,0823.4,4.99,0.00,27.1,26.5,00.0,36.0,29.0,08.8,0000.0,0010.80,0004.94,0003.93
2022-04-30 23:42:00,,0823.4,5.00,0.00,27.1,26.5,00.0,36.0,29.0,08.7,0000.0,0010.71,0004.92,0003.94
2022-04-30 23:43:00,,0823.4,5.01,0.00,27.2,26.5,00.0,36.0,29.0,08.8,0000.0,0011.18,0004.92,0003.95
2022-04-30 23:44:00,,0823.5,4.99,0.00,27.2,26.6,00.0,36.0,29.0,08.9,0000.0,0011.77,0004.89,0003.94
2022-04-30 23:45:00,,0823.5,4.99,0.00,27.2,26.6,00.0,36.1,29.0,08.9,0000.0,0011.72,0004.89,0003.95
2022-04-30 23:46:00,,0823.4,5.01,0.00,27.2,26.6,00.0,36.1,29.0,08.9,0000.0,0011.62,0004.88,0003.97
2022-04-30 23:47:00,,0823.4,5.01,0.00,27.2,26.5,00.0,36.1,29.0,08.9,0000.0,0011.57,0004.90,0003.97
2022-04-30 23:48:00,,0823.4,4.99,0.00,27.2,26.5,00.0,36.1,29.0,08.8,0000.0,0012.04,0004.88,0003.97
2022-04-30 23:49:00,,0823.4,5.01,0.00,27.2,26.5,00.0,36.1,29.0,08.8,0000.0,0011.78,0004.86,0003.99
2022-04-30 23:50:00,,0823.4,4.99,0.00,27.2,26.4,00.0,36.1,29.0,08.8,0000.0,0011.68,0004.88,0004.00
2022-04-30 23:51:00,,0823.5,4.98,0.00,27.2,26.4,00.0,36.1,28.9,08.8,0000.0,0011.76,0004.95,0004.02
2022-04-30 23:52:00,,0823.5,5.01,0.00,27.2,26.5,00.0,36.1,28.9,08.7,0000.0,0012.02,0004.95,0004.03
2022-04-30 23:53:00,,0823.5,4.99,0.00,27.2,26.5,00.0,36.1,28.9,08.8,0000.0,0012.37,0004.97,0004.03
2022-04-30 23:54:00,,0823.6,4.99,0.00,27.2,26.5,00.0,36.1,29.0,08.7,0000.0,0012.59,0004.99,0004.05
2022-04-30 23:55:00,,0823.6,5.01,0.00,27.2,26.5,00.0,36.1,29.0,08.7,0000.0,0012.59,0005.04,0004.07
2022-04-30 23:56:00,,0823.5,5.01,0.00,27.2,26.5,00.0,36.1,29.0,08.7,0000.0,0012.88,0005.07,0004.07
2022-04-30 23:57:00,,0823.4,5.00,0.00,27.2,26.5,00.0,36.1,29.0,08.9,0000.0,0013.62,0005.11,0004.06
2022-04-30 23:58:00,,0823.4,4.99,0.00,27.2,26.5,00.0,36.1,29.0,09.0,0000.0,0013.97,0005.17,0004.05
2022-04-30 23:59:00,,0823.4,5.00,0.00,27.2,26.6,00.0,36.1,29.1,08.9,0000.0,0013.81,0005.18,0004.06
